Time,TemperatureF,DewpointF,PressureIn,WindDirection,WindDirectionDegrees,WindSpeedMPH,WindSpeedGustMPH,Humidity,HourlyPrecipIn,Conditions,Clouds,dailyrainin,SoftwareType,DateUTC
2013-08-22 00:00:00,71.6,65.5,30.03,South,180,0.0,0.0,81,0.00,,,-99.99,open2300 version1.11,2013-08-22 04:00:00,
2013-08-22 00:05:00,71.6,65.5,30.03,South,180,0.0,0.0,81,0.00,,,-99.99,open2300 version1.11,2013-08-22 04:05:00,
2013-08-22 00:10:00,71.6,65.5,30.03,South,180,0.0,0.0,81,0.00,,,-99.99,open2300 version1.11,2013-08-22 04:10:00,
2013-08-22 00:15:00,71.4,65.3,30.03,South,180,0.0,0.9,81,0.00,,,-99.99,open2300 version1.11,2013-08-22 04:15:00,
2013-08-22 00:20:00,71.4,65.3,30.02,South,180,0.0,0.0,81,0.00,,,-99.99,open2300 version1.11,2013-08-22 04:20:00,
2013-08-22 00:25:00,71.4,65.3,30.02,South,180,0.0,0.0,81,0.00,,,-99.99,open2300 version1.11,2013-08-22 04:25:00,
2013-08-22 00:30:00,71.4,65.3,30.02,South,180,0.0,0.7,81,0.00,,,-99.99,open2300 version1.11,2013-08-22 04:30:00,
2013-08-22 00:35:00,71.4,65.3,30.02,South,180,0.0,0.0,81,0.00,,,-99.99,open2300 version1.11,2013-08-22 04:35:00,
2013-08-22 00:40:00,71.2,65.4,30.02,South,180,0.0,0.0,82,0.00,,,-99.99,open2300 version1.11,2013-08-22 04:40:00,
2013-08-22 00:45:00,71.2,65.4,30.02,South,180,0.0,0.0,82,0.00,,,-99.99,open2300 version1.11,2013-08-22 04:45:00,
2013-08-22 00:50:00,71.2,65.4,30.02,South,180,0.0,0.0,82,0.00,,,-99.99,open2300 version1.11,2013-08-22 04:50:00,
2013-08-22 00:55:00,71.2,65.4,30.02,South,180,0.0,0.0,82,0.00,,,-99.99,open2300 version1.11,2013-08-22 04:55:00,
2013-08-22 01:05:00,71.2,65.4,30.03,South,180,0.0,0.7,82,0.00,,,-99.99,open2300 version1.11,2013-08-22 05:05:00,
2013-08-22 01:10:00,71.2,65.4,30.03,SSE,157,0.0,0.0,82,0.00,,,-99.99,open2300 version1.11,2013-08-22 05:10:00,
2013-08-22 01:15:00,71.2,65.4,30.03,SSE,157,0.0,0.0,82,0.00,,,-99.99,open2300 version1.11,2013-08-22 05:15:00,
2013-08-22 01:20:00,71.2,65.4,30.03,SSE,157,0.0,0.0,82,0.00,,,-99.99,open2300 version1.11,2013-08-22 05:20:00,
2013-08-22 01:25:00,71.2,65.4,30.02,SSE,157,0.0,0.0,82,0.00,,,-99.99,open2300 version1.11,2013-08-22 05:25:00,
2013-08-22 01:30:00,71.2,65.4,30.02,SSE,157,0.0,0.0,82,0.00,,,-99.99,open2300 version1.11,2013-08-22 05:30:00,
2013-08-22 01:40:00,71.4,65.6,30.02,SSW,202,0.3,2.5,82,0.00,,,-99.99,open2300 version1.11,2013-08-22 05:40:00,
2013-08-22 01:45:00,71.8,66.0,30.01,SSW,202,0.1,1.1,82,0.00,,,-99.99,open2300 version1.11,2013-08-22 05:45:00,
2013-08-22 01:50:00,71.8,65.6,30.01,SSW,202,0.1,0.9,81,0.00,,,-99.99,open2300 version1.11,2013-08-22 05:50:00,
2013-08-22 01:55:00,71.8,65.6,30.01,SSW,202,0.0,0.7,81,0.00,,,-99.99,open2300 version1.11,2013-08-22 05:55:00,
2013-08-22 02:00:00,71.8,65.6,30.01,SSW,202,0.0,0.0,81,0.00,,,-99.99,open2300 version1.11,2013-08-22 06:00:00,
2013-08-22 02:05:00,72.0,65.8,30.01,SSW,202,0.1,1.1,81,0.00,,,-99.99,open2300 version1.11,2013-08-22 06:05:00,
2013-08-22 02:10:00,72.1,66.0,30.01,SSW,202,0.0,0.2,81,0.00,,,-99.99,open2300 version1.11,2013-08-22 06:10:00,
2013-08-22 02:15:00,72.1,66.0,30.01,SSW,202,0.0,0.0,81,0.00,,,-99.99,open2300 version1.11,2013-08-22 06:15:00,
2013-08-22 02:20:00,72.1,66.0,30.01,SSW,202,0.0,0.0,81,0.00,,,-99.99,open2300 version1.11,2013-08-22 06:20:00,
2013-08-22 02:25:00,72.3,66.2,30.01,SSW,202,0.0,0.0,81,0.00,,,-99.99,open2300 version1.11,2013-08-22 06:25:00,
2013-08-22 02:30:00,72.3,66.2,30.02,SSW,202,0.0,0.0,81,0.00,,,-99.99,open2300 version1.11,2013-08-22 06:30:00,
2013-08-22 02:35:00,72.3,66.2,30.02,SSW,202,0.1,1.8,81,0.00,,,-99.99,open2300 version1.11,2013-08-22 06:35:00,
2013-08-22 02:40:00,72.5,66.4,30.02,SSW,212,0.8,4.7,81,0.00,,,-99.99,open2300 version1.11,2013-08-22 06:40:00,
2013-08-22 02:45:00,72.5,66.0,30.02,SSW,207,1.5,5.4,80,0.00,,,-99.99,open2300 version1.11,2013-08-22 06:45:00,
2013-08-22 02:50:00,72.7,66.2,30.02,SSW,202,0.8,2.9,80,0.00,,,-99.99,open2300 version1.11,2013-08-22 06:50:00,
2013-08-22 02:55:00,72.7,66.2,30.01,SW,223,0.3,1.8,80,0.00,,,-99.99,open2300 version1.11,2013-08-22 06:55:00,
2013-08-22 03:00:00,72.7,66.2,30.00,South,186,0.2,2.0,80,0.00,,,-99.99,open2300 version1.11,2013-08-22 07:00:00,
2013-08-22 03:05:00,72.7,66.2,30.00,SW,225,0.1,1.6,80,0.00,,,-99.99,open2300 version1.11,2013-08-22 07:05:00,
2013-08-22 03:10:00,72.7,65.8,30.00,SW,225,0.0,1.1,79,0.00,,,-99.99,open2300 version1.11,2013-08-22 07:10:00,
2013-08-22 03:15:00,72.7,65.8,30.00,SW,225,0.0,0.0,79,0.00,,,-99.99,open2300 version1.11,2013-08-22 07:15:00,
2013-08-22 03:20:00,72.5,65.6,30.00,SW,225,0.0,0.5,79,0.00,,,-99.99,open2300 version1.11,2013-08-22 07:20:00,
2013-08-22 03:25:00,72.5,66.0,29.99,SW,225,0.0,0.0,80,0.00,,,-99.99,open2300 version1.11,2013-08-22 07:25:00,
2013-08-22 03:30:00,72.5,66.0,30.00,SW,225,0.0,1.1,80,0.00,,,-99.99,open2300 version1.11,2013-08-22 07:30:00,
2013-08-22 03:35:00,72.5,66.0,30.00,SW,225,0.1,0.9,80,0.00,,,-99.99,open2300 version1.11,2013-08-22 07:35:00,
2013-08-22 03:40:00,72.3,65.8,29.99,SW,225,0.2,1.3,80,0.00,,,-99.99,open2300 version1.11,2013-08-22 07:40:00,
2013-08-22 03:45:00,72.3,65.8,29.99,SW,225,0.1,1.1,80,0.00,,,-99.99,open2300 version1.11,2013-08-22 07:45:00,
2013-08-22 03:50:00,72.3,65.8,29.99,SW,225,0.0,0.9,80,0.00,,,-99.99,open2300 version1.11,2013-08-22 07:50:00,
2013-08-22 03:55:00,72.3,65.8,29.99,SW,225,0.0,0.0,80,0.00,,,-99.99,open2300 version1.11,2013-08-22 07:55:00,
2013-08-22 04:00:00,72.1,65.7,29.98,SW,225,0.0,0.0,80,0.00,,,-99.99,open2300 version1.11,2013-08-22 08:00:00,
2013-08-22 04:05:00,72.1,65.7,29.98,SW,225,0.0,0.0,80,0.00,,,-99.99,open2300 version1.11,2013-08-22 08:05:00,
2013-08-22 04:10:00,72.1,65.7,29.97,SW,225,0.0,0.0,80,0.00,,,-99.99,open2300 version1.11,2013-08-22 08:10:00,
2013-08-22 04:15:00,72.1,65.7,29.96,SSE,159,0.6,4.0,80,0.00,,,-99.99,open2300 version1.11,2013-08-22 08:15:00,
2013-08-22 04:20:00,72.1,66.0,29.95,SSE,157,0.6,3.1,81,0.00,,,-99.99,open2300 version1.11,2013-08-22 08:20:00,
2013-08-22 04:25:00,72.0,65.8,29.95,SSE,157,1.2,3.4,81,0.00,,,-99.99,open2300 version1.11,2013-08-22 08:25:00,
2013-08-22 04:30:00,71.8,65.6,29.95,SSE,157,0.0,0.0,81,0.00,,,-99.99,open2300 version1.11,2013-08-22 08:30:00,
2013-08-22 04:35:00,71.8,65.6,29.94,SSE,157,0.3,2.7,81,0.00,,,-99.99,open2300 version1.11,2013-08-22 08:35:00,
2013-08-22 04:40:00,71.8,65.6,29.94,SSE,161,0.7,3.4,81,0.00,,,-99.99,open2300 version1.11,2013-08-22 08:40:00,
2013-08-22 04:45:00,71.8,66.0,29.98,South,184,1.8,4.0,82,0.00,,,-99.99,open2300 version1.11,2013-08-22 08:45:00,
2013-08-22 04:50:00,71.4,65.6,29.97,SW,225,0.1,2.7,82,0.00,,,-99.99,open2300 version1.11,2013-08-22 08:50:00,
2013-08-22 04:55:00,71.4,65.6,29.97,SW,225,0.0,0.0,82,0.00,,,-99.99,open2300 version1.11,2013-08-22 08:55:00,
2013-08-22 05:00:00,71.4,65.6,29.96,SW,225,0.0,0.0,82,0.00,,,-99.99,open2300 version1.11,2013-08-22 09:00:00,
2013-08-22 05:05:00,71.4,65.6,29.98,SW,225,0.1,0.7,82,0.00,,,-99.99,open2300 version1.11,2013-08-22 09:05:00,
2013-08-22 05:10:00,71.2,65.8,29.98,SSW,204,0.3,2.7,83,0.00,,,-99.99,open2300 version1.11,2013-08-22 09:10:00,
2013-08-22 05:15:00,71.2,65.8,29.99,SSW,202,0.0,0.0,83,0.00,,,-99.99,open2300 version1.11,2013-08-22 09:15:00,
2013-08-22 05:20:00,71.2,65.8,29.99,SSE,157,0.0,0.9,83,0.00,,,-99.99,open2300 version1.11,2013-08-22 09:20:00,
2013-08-22 05:25:00,71.2,65.8,30.00,SSE,157,0.0,0.0,83,0.00,,,-99.99,open2300 version1.11,2013-08-22 09:25:00,
2013-08-22 05:30:00,71.2,65.8,30.00,SSE,157,0.0,0.7,83,0.00,,,-99.99,open2300 version1.11,2013-08-22 09:30:00,
2013-08-22 05:35:00,71.1,65.6,30.00,SSE,157,0.0,0.0,83,0.00,,,-99.99,open2300 version1.11,2013-08-22 09:35:00,
2013-08-22 05:40:00,70.9,65.4,30.00,SSE,157,0.0,0.0,83,0.00,,,-99.99,open2300 version1.11,2013-08-22 09:40:00,
2013-08-22 05:45:00,70.9,65.4,30.00,SSE,157,0.0,0.0,83,0.00,,,-99.99,open2300 version1.11,2013-08-22 09:45:00,
2013-08-22 05:50:00,70.9,65.4,30.00,SSE,157,0.0,0.0,83,0.00,,,-99.99,open2300 version1.11,2013-08-22 09:50:00,
2013-08-22 05:55:00,70.9,65.4,30.00,SSE,157,0.0,0.0,83,0.00,,,-99.99,open2300 version1.11,2013-08-22 09:55:00,
2013-08-22 06:00:00,70.9,65.4,30.00,SSE,157,0.0,0.0,83,0.00,,,-99.99,open2300 version1.11,2013-08-22 10:00:00,
2013-08-22 06:05:00,70.7,65.2,30.00,SSE,157,0.0,0.0,83,0.00,,,-99.99,open2300 version1.11,2013-08-22 10:05:00,
2013-08-22 06:10:00,70.7,65.2,30.00,SSE,157,0.0,0.0,83,0.00,,,-99.99,open2300 version1.11,2013-08-22 10:10:00,
2013-08-22 06:15:00,70.5,65.1,30.01,SSE,157,0.0,0.0,83,0.00,,,-99.99,open2300 version1.11,2013-08-22 10:15:00,
2013-08-22 06:20:00,70.5,65.1,30.01,SSE,157,0.0,0.0,83,0.00,,,-99.99,open2300 version1.11,2013-08-22 10:20:00,
2013-08-22 06:25:00,70.3,64.9,30.01,SSE,157,0.0,0.0,83,0.00,,,-99.99,open2300 version1.11,2013-08-22 10:25:00,
2013-08-22 06:30:00,70.3,65.2,30.01,SSE,157,0.0,0.0,84,0.00,,,-99.99,open2300 version1.11,2013-08-22 10:30:00,
2013-08-22 06:35:00,70.2,65.0,30.02,SSE,157,0.0,0.0,84,0.00,,,-99.99,open2300 version1.11,2013-08-22 10:35:00,
2013-08-22 06:40:00,70.0,64.9,30.01,SSE,157,0.0,0.0,84,0.00,,,-99.99,open2300 version1.11,2013-08-22 10:40:00,
2013-08-22 06:45:00,70.0,64.9,30.02,SSE,157,0.0,0.0,84,0.00,,,-99.99,open2300 version1.11,2013-08-22 10:45:00,
2013-08-22 06:50:00,70.0,64.9,30.02,SSE,157,0.0,0.0,84,0.00,,,-99.99,open2300 version1.11,2013-08-22 10:50:00,
2013-08-22 06:55:00,69.8,64.7,30.02,SSE,157,0.0,0.0,84,0.00,,,-99.99,open2300 version1.11,2013-08-22 10:55:00,
2013-08-22 07:00:00,69.8,64.7,30.02,SSE,157,0.0,0.0,84,0.00,,,-99.99,open2300 version1.11,2013-08-22 11:00:00,
2013-08-22 07:05:00,69.6,64.5,30.02,SSE,157,0.0,0.0,84,0.00,,,-99.99,open2300 version1.11,2013-08-22 11:05:00,
2013-08-22 07:10:00,69.6,64.5,30.02,SSE,157,0.0,0.0,84,0.00,,,-99.99,open2300 version1.11,2013-08-22 11:10:00,
2013-08-22 07:15:00,69.6,64.8,30.02,SSE,157,0.0,0.0,85,0.00,,,-99.99,open2300 version1.11,2013-08-22 11:15:00,
2013-08-22 07:20:00,69.6,64.8,30.02,SSE,157,0.0,0.0,85,0.00,,,-99.99,open2300 version1.11,2013-08-22 11:20:00,
2013-08-22 07:25:00,69.6,64.8,30.02,SSE,157,0.0,0.0,85,0.00,,,-99.99,open2300 version1.11,2013-08-22 11:25:00,
2013-08-22 07:30:00,69.6,64.8,30.03,SSE,157,0.0,0.0,85,0.00,,,-99.99,open2300 version1.11,2013-08-22 11:30:00,
2013-08-22 07:35:00,69.6,64.8,30.02,SSE,157,0.0,0.0,85,0.00,,,-99.99,open2300 version1.11,2013-08-22 11:35:00,
2013-08-22 07:40:00,69.6,64.8,30.02,SSE,157,0.0,0.0,85,0.00,,,-99.99,open2300 version1.11,2013-08-22 11:40:00,
2013-08-22 07:45:00,69.6,64.8,30.02,SSE,157,0.0,0.0,85,0.00,,,-99.99,open2300 version1.11,2013-08-22 11:45:00,
2013-08-22 07:50:00,69.6,64.8,30.03,SSE,157,0.0,0.0,85,0.00,,,-99.99,open2300 version1.11,2013-08-22 11:50:00,
2013-08-22 07:55:00,69.6,64.8,30.03,SSE,157,0.0,0.0,85,0.00,,,-99.99,open2300 version1.11,2013-08-22 11:55:00,
2013-08-22 08:00:00,69.6,64.8,30.03,SSE,157,0.0,0.0,85,0.00,,,-99.99,open2300 version1.11,2013-08-22 12:00:00,
2013-08-22 08:05:00,69.6,64.8,30.04,SSE,157,0.0,0.9,85,0.00,,,-99.99,open2300 version1.11,2013-08-22 12:05:00,
2013-08-22 08:10:00,69.6,64.8,30.04,SSE,157,0.0,0.7,85,0.00,,,-99.99,open2300 version1.11,2013-08-22 12:10:00,
2013-08-22 08:15:00,69.6,64.8,30.05,SSE,157,0.0,0.9,85,0.00,,,-99.99,open2300 version1.11,2013-08-22 12:15:00,
2013-08-22 08:20:00,69.6,64.8,30.04,SSE,157,0.0,0.7,85,0.00,,,-99.99,open2300 version1.11,2013-08-22 12:20:00,
2013-08-22 08:25:00,69.8,65.0,30.04,SSE,157,0.0,0.9,85,0.00,,,-99.99,open2300 version1.11,2013-08-22 12:25:00,
2013-08-22 08:27:00,69.6,64.8,30.04,SSE,157,0.0,0.7,85,0.00,,,-99.99,open2300 version1.11,2013-08-22 12:27:00,
2013-08-22 08:30:00,70.0,65.2,30.04,SSE,157,0.0,0.5,85,0.00,,,-99.99,open2300 version1.11,2013-08-22 12:30:00,
2013-08-22 08:35:00,70.2,65.0,30.05,SSE,157,0.0,0.0,84,0.00,,,-99.99,open2300 version1.11,2013-08-22 12:35:00,
2013-08-22 08:40:00,70.3,65.6,30.05,SSE,157,0.0,0.0,85,0.00,,,-99.99,open2300 version1.11,2013-08-22 12:40:00,
2013-08-22 08:45:00,70.5,65.4,30.05,SSE,157,0.0,0.0,84,0.00,,,-99.99,open2300 version1.11,2013-08-22 12:45:00,
2013-08-22 08:50:00,70.5,65.4,30.05,SSE,157,0.0,0.0,84,0.00,,,-99.99,open2300 version1.11,2013-08-22 12:50:00,
2013-08-22 08:55:00,70.7,65.6,30.05,SSE,157,0.2,1.3,84,0.00,,,-99.99,open2300 version1.11,2013-08-22 12:55:00,
2013-08-22 09:00:00,70.9,65.4,30.04,SSE,157,0.1,1.8,83,0.00,,,-99.99,open2300 version1.11,2013-08-22 13:00:00,
2013-08-22 09:05:00,71.2,65.8,30.04,SSE,157,0.0,0.9,83,0.00,,,-99.99,open2300 version1.11,2013-08-22 13:05:00,
2013-08-22 09:10:00,71.4,66.0,30.05,SSE,157,0.0,0.7,83,0.00,,,-99.99,open2300 version1.11,2013-08-22 13:10:00,
2013-08-22 09:15:00,71.4,66.0,30.05,SSE,157,0.1,0.9,83,0.00,,,-99.99,open2300 version1.11,2013-08-22 13:15:00,
2013-08-22 09:20:00,71.6,65.8,30.05,SSE,157,0.0,0.9,82,0.00,,,-99.99,open2300 version1.11,2013-08-22 13:20:00,
2013-08-22 09:25:00,71.8,66.0,30.04,SSE,157,0.0,0.9,82,0.00,,,-99.99,open2300 version1.11,2013-08-22 13:25:00,
2013-08-22 09:30:00,72.0,65.8,30.04,SSE,157,0.0,0.0,81,0.00,,,-99.99,open2300 version1.11,2013-08-22 13:30:00,
2013-08-22 09:35:00,72.1,66.0,30.04,SSE,157,0.0,0.0,81,0.00,,,-99.99,open2300 version1.11,2013-08-22 13:35:00,
2013-08-22 09:40:00,72.3,66.2,30.04,SSE,157,0.1,1.1,81,0.00,,,-99.99,open2300 version1.11,2013-08-22 13:40:00,
2013-08-22 09:45:00,72.5,66.4,30.04,SSE,157,0.0,0.0,81,0.00,,,-99.99,open2300 version1.11,2013-08-22 13:45:00,
2013-08-22 09:50:00,72.7,66.2,30.04,SSE,157,0.3,1.8,80,0.00,,,-99.99,open2300 version1.11,2013-08-22 13:50:00,
2013-08-22 09:55:00,73.0,66.6,30.04,SSE,157,0.2,1.3,80,0.00,,,-99.99,open2300 version1.11,2013-08-22 13:55:00,
2013-08-22 10:00:00,73.0,66.2,30.04,South,176,0.6,2.0,79,0.00,,,-99.99,open2300 version1.11,2013-08-22 14:00:00,
2013-08-22 10:05:00,73.2,66.4,30.04,South,187,0.1,1.1,79,0.00,,,-99.99,open2300 version1.11,2013-08-22 14:05:00,
2013-08-22 10:10:00,73.2,66.0,30.03,SSW,202,0.0,0.0,78,0.00,,,-99.99,open2300 version1.11,2013-08-22 14:10:00,
2013-08-22 10:15:00,73.6,66.3,30.03,SSW,202,0.0,0.0,78,0.00,,,-99.99,open2300 version1.11,2013-08-22 14:15:00,
2013-08-22 10:20:00,73.9,66.7,30.04,SSW,202,0.1,0.9,78,0.00,,,-99.99,open2300 version1.11,2013-08-22 14:20:00,
2013-08-22 10:25:00,73.9,66.7,30.04,SW,216,0.1,0.9,78,0.00,,,-99.99,open2300 version1.11,2013-08-22 14:25:00,
2013-08-22 10:30:00,74.3,67.0,30.03,South,180,0.1,1.1,78,0.00,,,-99.99,open2300 version1.11,2013-08-22 14:30:00,
2013-08-22 10:35:00,74.5,66.8,30.04,SSW,200,0.4,2.5,77,0.00,,,-99.99,open2300 version1.11,2013-08-22 14:35:00,
2013-08-22 10:40:00,74.8,67.2,30.03,SW,225,0.1,0.9,77,0.00,,,-99.99,open2300 version1.11,2013-08-22 14:40:00,
2013-08-22 10:45:00,75.0,67.0,30.03,SW,223,0.4,1.3,76,0.00,,,-99.99,open2300 version1.11,2013-08-22 14:45:00,
2013-08-22 10:50:00,75.4,67.3,30.04,SSE,157,0.4,2.0,76,0.00,,,-99.99,open2300 version1.11,2013-08-22 14:50:00,
2013-08-22 10:55:00,75.7,67.2,30.04,South,185,1.3,4.7,75,0.00,,,-99.99,open2300 version1.11,2013-08-22 14:55:00,
2013-08-22 11:00:00,75.9,67.4,30.04,SW,225,1.0,2.7,75,0.00,,,-99.99,open2300 version1.11,2013-08-22 15:00:00,
2013-08-22 11:05:00,76.1,67.2,30.04,SW,220,0.8,2.9,74,0.00,,,-99.99,open2300 version1.11,2013-08-22 15:05:00,
2013-08-22 11:10:00,76.3,67.4,30.04,South,176,0.4,2.5,74,0.00,,,-99.99,open2300 version1.11,2013-08-22 15:10:00,
2013-08-22 11:15:00,76.5,67.5,30.04,SSW,204,0.7,2.5,74,0.00,,,-99.99,open2300 version1.11,2013-08-22 15:15:00,
2013-08-22 11:20:00,76.8,67.5,30.05,SW,218,0.9,3.4,73,0.00,,,-99.99,open2300 version1.11,2013-08-22 15:20:00,
2013-08-22 11:25:00,76.8,67.5,30.05,SW,225,1.6,3.4,73,0.00,,,-99.99,open2300 version1.11,2013-08-22 15:25:00,
2013-08-22 11:30:00,77.2,67.5,30.05,SSW,204,1.4,2.9,72,0.00,,,-99.99,open2300 version1.11,2013-08-22 15:30:00,
2013-08-22 11:35:00,77.4,67.6,30.04,South,189,0.9,3.8,72,0.00,,,-99.99,open2300 version1.11,2013-08-22 15:35:00,
2013-08-22 11:40:00,77.5,67.8,30.04,SW,225,0.8,2.5,72,0.00,,,-99.99,open2300 version1.11,2013-08-22 15:40:00,
2013-08-22 11:45:00,77.7,67.6,30.04,SSW,210,0.7,2.0,71,0.00,,,-99.99,open2300 version1.11,2013-08-22 15:45:00,
2013-08-22 11:50:00,78.1,67.9,30.04,SW,225,0.9,4.0,71,0.00,,,-99.99,open2300 version1.11,2013-08-22 15:50:00,
2013-08-22 11:55:00,78.1,67.5,30.04,SSW,208,0.8,2.0,70,0.00,,,-99.99,open2300 version1.11,2013-08-22 15:55:00,
2013-08-22 12:00:00,78.1,67.5,30.04,SSW,200,0.9,2.7,70,0.00,,,-99.99,open2300 version1.11,2013-08-22 16:00:00,
2013-08-22 12:05:00,78.4,67.9,30.05,SW,225,0.6,2.9,70,0.00,,,-99.99,open2300 version1.11,2013-08-22 16:05:00,
2013-08-22 12:10:00,78.4,67.9,30.05,SW,225,0.3,2.0,70,0.00,,,-99.99,open2300 version1.11,2013-08-22 16:10:00,
2013-08-22 12:15:00,78.4,67.9,30.05,SW,225,0.4,2.0,70,0.00,,,-99.99,open2300 version1.11,2013-08-22 16:15:00,
2013-08-22 12:20:00,78.6,68.0,30.05,SSW,209,0.3,1.1,70,0.00,,,-99.99,open2300 version1.11,2013-08-22 16:20:00,
2013-08-22 12:25:00,78.6,68.4,30.05,South,185,0.5,2.0,71,0.00,,,-99.99,open2300 version1.11,2013-08-22 16:25:00,
2013-08-22 12:30:00,79.0,68.8,30.04,SW,225,0.9,2.9,71,0.00,,,-99.99,open2300 version1.11,2013-08-22 16:30:00,
2013-08-22 12:35:00,79.0,68.4,30.04,SW,225,0.8,3.6,70,0.00,,,-99.99,open2300 version1.11,2013-08-22 16:35:00,
2013-08-22 12:40:00,79.3,68.7,30.04,SW,225,0.8,4.0,70,0.00,,,-99.99,open2300 version1.11,2013-08-22 16:40:00,
2013-08-22 12:45:00,79.5,68.9,30.04,SW,225,0.6,1.8,70,0.00,,,-99.99,open2300 version1.11,2013-08-22 16:45:00,
2013-08-22 12:50:00,79.5,68.5,30.03,SSW,208,0.4,2.0,69,0.00,,,-99.99,open2300 version1.11,2013-08-22 16:50:00,
2013-08-22 12:55:00,79.7,68.2,30.04,SW,225,0.4,1.8,68,0.00,,,-99.99,open2300 version1.11,2013-08-22 16:55:00,
2013-08-22 13:00:00,79.9,68.4,30.03,SW,225,0.6,2.5,68,0.00,,,-99.99,open2300 version1.11,2013-08-22 17:00:00,
2013-08-22 13:05:00,80.2,68.7,30.04,SW,225,0.1,1.1,68,0.00,,,-99.99,open2300 version1.11,2013-08-22 17:05:00,
2013-08-22 13:10:00,80.2,68.3,30.03,SW,220,0.4,1.8,67,0.00,,,-99.99,open2300 version1.11,2013-08-22 17:10:00,
2013-08-22 13:15:00,80.4,68.5,30.03,SSW,202,0.2,1.6,67,0.00,,,-99.99,open2300 version1.11,2013-08-22 17:15:00,
2013-08-22 13:20:00,80.4,68.5,30.04,South,181,0.3,1.3,67,0.00,,,-99.99,open2300 version1.11,2013-08-22 17:20:00,
2013-08-22 13:25:00,80.6,68.6,30.03,SW,217,0.4,2.2,67,0.00,,,-99.99,open2300 version1.11,2013-08-22 17:25:00,
2013-08-22 13:30:00,81.0,68.5,30.03,SSW,212,1.0,2.7,66,0.00,,,-99.99,open2300 version1.11,2013-08-22 17:30:00,
2013-08-22 13:35:00,81.1,68.7,30.03,SW,225,0.2,3.4,66,0.00,,,-99.99,open2300 version1.11,2013-08-22 17:35:00,
2013-08-22 13:40:00,81.0,68.0,30.04,SW,225,0.0,0.0,65,0.00,,,-99.99,open2300 version1.11,2013-08-22 17:40:00,
2013-08-22 13:45:00,81.0,68.5,30.03,SW,225,0.1,1.3,66,0.00,,,-99.99,open2300 version1.11,2013-08-22 17:45:00,
2013-08-22 13:50:00,80.8,67.9,30.03,SW,225,0.1,1.8,65,0.00,,,-99.99,open2300 version1.11,2013-08-22 17:50:00,
2013-08-22 13:55:00,80.6,67.7,30.03,SW,225,0.0,0.5,65,0.00,,,-99.99,open2300 version1.11,2013-08-22 17:55:00,
2013-08-22 14:00:00,80.6,68.2,30.03,SW,225,0.3,2.0,66,0.00,,,-99.99,open2300 version1.11,2013-08-22 18:00:00,
2013-08-22 14:05:00,80.4,68.0,30.03,SW,225,0.3,2.0,66,0.00,,,-99.99,open2300 version1.11,2013-08-22 18:05:00,
2013-08-22 14:10:00,80.4,68.0,30.03,SW,225,0.0,0.0,66,0.00,,,-99.99,open2300 version1.11,2013-08-22 18:10:00,
2013-08-22 14:15:00,80.4,68.0,30.03,SW,225,0.0,0.0,66,0.00,,,-99.99,open2300 version1.11,2013-08-22 18:15:00,
2013-08-22 14:20:00,80.8,68.3,30.04,SW,225,0.6,1.8,66,0.00,,,-99.99,open2300 version1.11,2013-08-22 18:20:00,
2013-08-22 14:25:00,81.1,68.7,30.04,SW,225,0.4,2.2,66,0.00,,,-99.99,open2300 version1.11,2013-08-22 18:25:00,
2013-08-22 14:30:00,81.3,68.4,30.03,SW,225,0.0,0.0,65,0.00,,,-99.99,open2300 version1.11,2013-08-22 18:30:00,
2013-08-22 14:35:00,81.1,68.2,30.03,SW,225,0.0,0.0,65,0.00,,,-99.99,open2300 version1.11,2013-08-22 18:35:00,
2013-08-22 14:40:00,81.1,68.2,30.04,SW,225,0.0,0.0,65,0.00,,,-99.99,open2300 version1.11,2013-08-22 18:40:00,
2013-08-22 14:45:00,81.0,68.0,30.04,SW,225,0.2,1.3,65,0.00,,,-99.99,open2300 version1.11,2013-08-22 18:45:00,
2013-08-22 14:50:00,80.8,68.3,30.04,SW,225,0.3,1.8,66,0.00,,,-99.99,open2300 version1.11,2013-08-22 18:50:00,
2013-08-22 14:55:00,80.8,68.3,30.03,SW,225,0.6,2.2,66,0.00,,,-99.99,open2300 version1.11,2013-08-22 18:55:00,
2013-08-22 15:00:00,80.8,68.3,30.03,SW,225,0.2,1.3,66,0.00,,,-99.99,open2300 version1.11,2013-08-22 19:00:00,
2013-08-22 15:05:00,80.8,68.3,30.03,SW,225,0.4,1.6,66,0.00,,,-99.99,open2300 version1.11,2013-08-22 19:05:00,
2013-08-22 15:10:00,80.8,68.3,30.03,SW,225,0.0,0.5,66,0.00,,,-99.99,open2300 version1.11,2013-08-22 19:10:00,
2013-08-22 15:15:00,80.8,68.3,30.03,SW,225,0.4,2.0,66,0.00,,,-99.99,open2300 version1.11,2013-08-22 19:15:00,
2013-08-22 15:20:00,80.8,68.3,30.03,SW,225,0.5,2.2,66,0.00,,,-99.99,open2300 version1.11,2013-08-22 19:20:00,
2013-08-22 15:25:00,81.1,68.7,30.03,South,184,0.9,3.1,66,0.00,,,-99.99,open2300 version1.11,2013-08-22 19:25:00,
2013-08-22 15:30:00,81.3,68.4,30.03,SSW,209,0.4,2.5,65,0.00,,,-99.99,open2300 version1.11,2013-08-22 19:30:00,
2013-08-22 15:35:00,81.5,68.5,30.02,South,187,0.1,1.6,65,0.00,,,-99.99,open2300 version1.11,2013-08-22 19:35:00,
2013-08-22 15:40:00,81.7,68.7,30.02,SSW,202,0.1,1.1,65,0.00,,,-99.99,open2300 version1.11,2013-08-22 19:40:00,
2013-08-22 15:45:00,81.7,68.7,30.02,SSW,202,0.0,0.7,65,0.00,,,-99.99,open2300 version1.11,2013-08-22 19:45:00,
2013-08-22 15:50:00,81.7,68.7,30.02,SSW,202,0.0,0.7,65,0.00,,,-99.99,open2300 version1.11,2013-08-22 19:50:00,
2013-08-22 15:55:00,81.9,68.9,30.01,SSW,202,0.1,2.0,65,0.00,,,-99.99,open2300 version1.11,2013-08-22 19:55:00,
2013-08-22 16:00:00,81.7,68.7,30.01,South,185,0.2,1.3,65,0.00,,,-99.99,open2300 version1.11,2013-08-22 20:00:00,
2013-08-22 16:05:00,81.7,68.7,30.02,SSE,157,0.1,0.9,65,0.00,,,-99.99,open2300 version1.11,2013-08-22 20:05:00,
2013-08-22 16:10:00,81.7,68.7,30.01,SSE,157,0.2,1.8,65,0.00,,,-99.99,open2300 version1.11,2013-08-22 20:10:00,
2013-08-22 16:15:00,81.5,68.5,30.01,SSE,157,0.3,1.6,65,0.00,,,-99.99,open2300 version1.11,2013-08-22 20:15:00,
2013-08-22 16:20:00,81.5,68.5,30.00,SSE,157,0.2,1.1,65,0.00,,,-99.99,open2300 version1.11,2013-08-22 20:20:00,
2013-08-22 16:25:00,81.7,68.7,30.00,South,191,0.6,1.6,65,0.00,,,-99.99,open2300 version1.11,2013-08-22 20:25:00,
2013-08-22 16:30:00,81.5,68.5,30.02,SSW,198,0.6,3.1,65,0.00,,,-99.99,open2300 version1.11,2013-08-22 20:30:00,
2013-08-22 16:35:00,81.3,68.4,30.02,SW,220,0.4,2.2,65,0.00,,,-99.99,open2300 version1.11,2013-08-22 20:35:00,
2013-08-22 16:40:00,81.3,68.4,30.01,SW,225,0.6,2.7,65,0.00,,,-99.99,open2300 version1.11,2013-08-22 20:40:00,
2013-08-22 16:45:00,81.1,68.2,30.01,SW,225,1.4,3.1,65,0.00,,,-99.99,open2300 version1.11,2013-08-22 20:45:00,
2013-08-22 16:50:00,80.8,67.9,30.02,SW,225,0.1,1.1,65,0.00,,,-99.99,open2300 version1.11,2013-08-22 20:50:00,
2013-08-22 16:55:00,80.6,68.2,30.02,SW,225,0.1,0.9,66,0.00,,,-99.99,open2300 version1.11,2013-08-22 20:55:00,
2013-08-22 17:00:00,80.4,68.0,30.02,SW,225,0.2,1.1,66,0.00,,,-99.99,open2300 version1.11,2013-08-22 21:00:00,
2013-08-22 17:05:00,80.4,68.0,30.02,SW,225,0.0,0.0,66,0.00,,,-99.99,open2300 version1.11,2013-08-22 21:05:00,
2013-08-22 17:10:00,80.2,68.3,30.02,SW,225,0.0,0.0,67,0.00,,,-99.99,open2300 version1.11,2013-08-22 21:10:00,
2013-08-22 17:15:00,79.9,67.9,30.02,SW,225,0.0,0.0,67,0.00,,,-99.99,open2300 version1.11,2013-08-22 21:15:00,
2013-08-22 17:20:00,79.7,67.8,30.02,SW,225,0.0,0.0,67,0.00,,,-99.99,open2300 version1.11,2013-08-22 21:20:00,
2013-08-22 17:25:00,79.5,68.0,30.03,SW,225,0.0,0.0,68,0.00,,,-99.99,open2300 version1.11,2013-08-22 21:25:00,
2013-08-22 17:30:00,79.3,67.8,30.02,SW,225,0.0,0.0,68,0.00,,,-99.99,open2300 version1.11,2013-08-22 21:30:00,
2013-08-22 17:35:00,79.2,67.7,30.03,SW,225,0.0,0.0,68,0.00,,,-99.99,open2300 version1.11,2013-08-22 21:35:00,
2013-08-22 17:40:00,79.0,67.9,30.02,SW,225,0.0,0.0,69,0.00,,,-99.99,open2300 version1.11,2013-08-22 21:40:00,
2013-08-22 17:45:00,79.0,67.9,30.02,SW,225,0.0,0.0,69,0.00,,,-99.99,open2300 version1.11,2013-08-22 21:45:00,
2013-08-22 17:50:00,78.6,67.6,30.02,SW,225,0.0,0.0,69,0.00,,,-99.99,open2300 version1.11,2013-08-22 21:50:00,
2013-08-22 17:55:00,78.6,67.6,30.02,SW,225,0.0,0.0,69,0.00,,,-99.99,open2300 version1.11,2013-08-22 21:55:00,
2013-08-22 18:00:00,78.4,67.4,30.02,SW,225,0.0,0.0,69,0.00,,,-99.99,open2300 version1.11,2013-08-22 22:00:00,
2013-08-22 18:05:00,78.4,67.9,30.01,SW,225,0.0,0.0,70,0.00,,,-99.99,open2300 version1.11,2013-08-22 22:05:00,
2013-08-22 18:10:00,78.3,67.7,30.01,SW,225,0.0,0.0,70,0.00,,,-99.99,open2300 version1.11,2013-08-22 22:10:00,
2013-08-22 18:15:00,78.1,67.5,30.02,SW,225,0.0,0.0,70,0.00,,,-99.99,open2300 version1.11,2013-08-22 22:15:00,
2013-08-22 18:20:00,78.1,67.5,30.01,SW,225,0.0,0.7,70,0.00,,,-99.99,open2300 version1.11,2013-08-22 22:20:00,
2013-08-22 18:25:00,78.1,67.5,30.01,SW,225,0.0,0.0,70,0.00,,,-99.99,open2300 version1.11,2013-08-22 22:25:00,
2013-08-22 18:30:00,78.1,67.5,30.01,SW,225,0.0,0.0,70,0.00,,,-99.99,open2300 version1.11,2013-08-22 22:30:00,
2013-08-22 18:35:00,77.9,67.8,30.01,SW,225,0.0,0.7,71,0.00,,,-99.99,open2300 version1.11,2013-08-22 22:35:00,
2013-08-22 18:40:00,77.9,67.8,30.02,SW,225,0.0,0.7,71,0.00,,,-99.99,open2300 version1.11,2013-08-22 22:40:00,
2013-08-22 18:45:00,77.9,67.8,30.01,SW,225,0.0,0.7,71,0.00,,,-99.99,open2300 version1.11,2013-08-22 22:45:00,
2013-08-22 18:50:00,77.9,67.8,30.01,SW,225,0.0,0.0,71,0.00,,,-99.99,open2300 version1.11,2013-08-22 22:50:00,
2013-08-22 18:55:00,77.7,67.6,30.01,SW,225,0.0,0.0,71,0.00,,,-99.99,open2300 version1.11,2013-08-22 22:55:00,
2013-08-22 19:00:00,77.5,67.4,30.01,SW,225,0.1,1.1,71,0.00,,,-99.99,open2300 version1.11,2013-08-22 23:00:00,
2013-08-22 19:05:00,77.5,67.4,30.01,SW,225,0.0,0.9,71,0.00,,,-99.99,open2300 version1.11,2013-08-22 23:05:00,
2013-08-22 19:10:00,77.4,67.6,30.01,SW,225,0.1,0.9,72,0.00,,,-99.99,open2300 version1.11,2013-08-22 23:10:00,
2013-08-22 19:15:00,77.2,67.5,30.01,SW,225,0.0,0.0,72,0.00,,,-99.99,open2300 version1.11,2013-08-22 23:15:00,
2013-08-22 19:20:00,77.0,67.3,30.01,SW,225,0.1,1.1,72,0.00,,,-99.99,open2300 version1.11,2013-08-22 23:20:00,
2013-08-22 19:25:00,76.8,67.1,30.02,SW,225,0.0,0.0,72,0.00,,,-99.99,open2300 version1.11,2013-08-22 23:25:00,
2013-08-22 19:30:00,76.8,67.1,30.01,SW,225,0.0,0.0,72,0.00,,,-99.99,open2300 version1.11,2013-08-22 23:30:00,
2013-08-22 19:35:00,76.6,67.3,30.01,SW,225,0.0,0.0,73,0.00,,,-99.99,open2300 version1.11,2013-08-22 23:35:00,
2013-08-22 19:40:00,76.5,67.2,30.01,SW,225,0.2,1.6,73,0.00,,,-99.99,open2300 version1.11,2013-08-22 23:40:00,
2013-08-22 19:45:00,76.3,67.0,30.01,SW,225,0.0,0.0,73,0.00,,,-99.99,open2300 version1.11,2013-08-22 23:45:00,
2013-08-22 19:50:00,76.1,66.8,30.01,SW,225,0.0,0.0,73,0.00,,,-99.99,open2300 version1.11,2013-08-22 23:50:00,
2013-08-22 19:55:00,75.9,66.6,30.01,SW,225,0.0,0.7,73,0.00,,,-99.99,open2300 version1.11,2013-08-22 23:55:00,
2013-08-22 20:00:00,75.7,66.5,30.01,SW,225,0.0,0.0,73,0.00,,,-99.99,open2300 version1.11,2013-08-23 00:00:00,
2013-08-22 20:05:00,75.7,66.8,30.01,SW,225,0.0,0.0,74,0.00,,,-99.99,open2300 version1.11,2013-08-23 00:05:00,
2013-08-22 20:10:00,75.6,66.7,30.01,SW,225,0.0,0.0,74,0.00,,,-99.99,open2300 version1.11,2013-08-23 00:10:00,
2013-08-22 20:15:00,75.4,66.5,30.01,SW,225,0.0,0.0,74,0.00,,,-99.99,open2300 version1.11,2013-08-23 00:15:00,
2013-08-22 20:20:00,75.4,66.5,30.01,SW,225,0.0,0.0,74,0.00,,,-99.99,open2300 version1.11,2013-08-23 00:20:00,
2013-08-22 20:25:00,75.0,66.6,30.02,SW,225,0.0,0.0,75,0.00,,,-99.99,open2300 version1.11,2013-08-23 00:25:00,
2013-08-22 20:35:00,74.8,66.4,30.03,SW,225,0.0,0.0,75,0.00,,,-99.99,open2300 version1.11,2013-08-23 00:35:00,
2013-08-22 20:40:00,74.7,66.2,30.02,SW,225,0.0,0.0,75,0.00,,,-99.99,open2300 version1.11,2013-08-23 00:40:00,
2013-08-22 20:45:00,74.5,66.1,30.02,SW,225,0.0,0.0,75,0.00,,,-99.99,open2300 version1.11,2013-08-23 00:45:00,
2013-08-22 20:50:00,74.3,66.3,30.02,SW,225,0.0,0.0,76,0.00,,,-99.99,open2300 version1.11,2013-08-23 00:50:00,
2013-08-22 20:55:00,74.1,66.1,30.02,SW,225,0.0,0.0,76,0.00,,,-99.99,open2300 version1.11,2013-08-23 00:55:00,
2013-08-22 21:00:00,73.9,66.3,30.02,SW,225,0.0,0.0,77,0.00,,,-99.99,open2300 version1.11,2013-08-23 01:00:00,
2013-08-22 21:05:00,73.9,66.3,30.02,SW,225,0.0,0.0,77,0.00,,,-99.99,open2300 version1.11,2013-08-23 01:05:00,
2013-08-22 21:10:00,73.8,66.1,30.02,SW,225,0.0,0.0,77,0.00,,,-99.99,open2300 version1.11,2013-08-23 01:10:00,
2013-08-22 21:15:00,73.6,66.0,30.02,SW,225,0.0,0.0,77,0.00,,,-99.99,open2300 version1.11,2013-08-23 01:15:00,
2013-08-22 21:20:00,73.4,66.2,30.03,SW,225,0.0,0.0,78,0.00,,,-99.99,open2300 version1.11,2013-08-23 01:20:00,
2013-08-22 21:25:00,73.2,66.0,30.03,SW,225,0.0,0.0,78,0.00,,,-99.99,open2300 version1.11,2013-08-23 01:25:00,
2013-08-22 21:30:00,73.2,66.4,30.03,SW,225,0.0,0.0,79,0.00,,,-99.99,open2300 version1.11,2013-08-23 01:30:00,
2013-08-22 21:35:00,73.0,66.2,30.03,SW,225,0.0,0.0,79,0.00,,,-99.99,open2300 version1.11,2013-08-23 01:35:00,
2013-08-22 21:40:00,73.0,66.2,30.03,SW,225,0.0,0.0,79,0.00,,,-99.99,open2300 version1.11,2013-08-23 01:40:00,
2013-08-22 21:45:00,72.7,65.8,30.03,SW,225,0.0,0.0,79,0.00,,,-99.99,open2300 version1.11,2013-08-23 01:45:00,
2013-08-22 21:50:00,72.7,65.8,30.03,SW,225,0.0,0.0,79,0.00,,,-99.99,open2300 version1.11,2013-08-23 01:50:00,
2013-08-22 21:55:00,72.5,66.0,30.03,SW,225,0.0,0.0,80,0.00,,,-99.99,open2300 version1.11,2013-08-23 01:55:00,
2013-08-22 22:00:00,72.3,65.8,30.03,SW,225,0.0,0.0,80,0.00,,,-99.99,open2300 version1.11,2013-08-23 02:00:00,
2013-08-22 22:05:00,72.3,66.2,30.03,SW,225,0.0,0.0,81,0.00,,,-99.99,open2300 version1.11,2013-08-23 02:05:00,
2013-08-22 22:10:00,72.1,66.0,30.03,SW,225,0.0,0.0,81,0.00,,,-99.99,open2300 version1.11,2013-08-23 02:10:00,
2013-08-22 22:15:00,72.1,66.0,30.03,SW,225,0.0,0.0,81,0.00,,,-99.99,open2300 version1.11,2013-08-23 02:15:00,
2013-08-22 22:20:00,72.0,65.8,30.03,SW,225,0.0,0.0,81,0.00,,,-99.99,open2300 version1.11,2013-08-23 02:20:00,
2013-08-22 22:25:00,71.8,65.6,30.03,SW,225,0.0,0.0,81,0.00,,,-99.99,open2300 version1.11,2013-08-23 02:25:00,
2013-08-22 22:30:00,71.8,65.6,30.03,SW,225,0.0,0.0,81,0.00,,,-99.99,open2300 version1.11,2013-08-23 02:30:00,
2013-08-22 22:35:00,71.8,65.6,30.03,SW,225,0.0,0.0,81,0.00,,,-99.99,open2300 version1.11,2013-08-23 02:35:00,
2013-08-22 22:40:00,71.6,65.5,30.03,SW,225,0.0,0.0,81,0.00,,,-99.99,open2300 version1.11,2013-08-23 02:40:00,
2013-08-22 22:45:00,71.4,65.3,30.03,SW,225,0.0,0.0,81,0.00,,,-99.99,open2300 version1.11,2013-08-23 02:45:00,
2013-08-22 22:50:00,71.4,65.6,30.04,SW,225,0.0,0.0,82,0.00,,,-99.99,open2300 version1.11,2013-08-23 02:50:00,
2013-08-22 22:55:00,71.4,65.6,30.03,SW,225,0.0,0.0,82,0.00,,,-99.99,open2300 version1.11,2013-08-23 02:55:00,
2013-08-22 23:00:00,71.2,65.4,30.04,SW,225,0.0,0.0,82,0.00,,,-99.99,open2300 version1.11,2013-08-23 03:00:00,
2013-08-22 23:05:00,71.1,65.3,30.04,SW,225,0.0,0.0,82,0.00,,,-99.99,open2300 version1.11,2013-08-23 03:05:00,
2013-08-22 23:10:00,70.9,65.1,30.04,SW,225,0.0,0.0,82,0.00,,,-99.99,open2300 version1.11,2013-08-23 03:10:00,
2013-08-22 23:15:00,70.7,65.2,30.04,SW,225,0.0,0.0,83,0.00,,,-99.99,open2300 version1.11,2013-08-23 03:15:00,
2013-08-22 23:20:00,70.5,65.1,30.04,SW,225,0.0,0.0,83,0.00,,,-99.99,open2300 version1.11,2013-08-23 03:20:00,
2013-08-22 23:25:00,70.5,65.1,30.05,SW,225,0.0,0.0,83,0.00,,,-99.99,open2300 version1.11,2013-08-23 03:25:00,
2013-08-22 23:30:00,70.3,64.9,30.05,SW,225,0.0,0.0,83,0.00,,,-99.99,open2300 version1.11,2013-08-23 03:30:00,
2013-08-22 23:35:00,70.3,64.9,30.05,SW,225,0.0,0.0,83,0.00,,,-99.99,open2300 version1.11,2013-08-23 03:35:00,
2013-08-22 23:40:00,70.0,64.5,30.05,SW,225,0.0,0.0,83,0.00,,,-99.99,open2300 version1.11,2013-08-23 03:40:00,
2013-08-22 23:45:00,70.0,64.5,30.05,SW,225,0.0,0.0,83,0.00,,,-99.99,open2300 version1.11,2013-08-23 03:45:00,
2013-08-22 23:50:00,69.6,64.2,30.05,SW,225,0.0,0.0,83,0.00,,,-99.99,open2300 version1.11,2013-08-23 03:50:00,
2013-08-22 23:55:00,69.6,64.5,30.05,SW,225,0.0,0.0,84,0.00,,,-99.99,open2300 version1.11,2013-08-23 03:55:00,